Tracking 21045 objects as of 4-Aug-2020
HD Live streaming from Space Station
objects crossing your sky now

SATCOM 3

Track SATCOM 3 now!
SATCOM 3 is classified as:


NORAD ID: 11635
Int'l Code: 1979-101A
Perigee: 8,291.0 km
Apogee: 35,531.8 km
Inclination: 9.1 °
Period: 788.9 minutes
Semi major axis: 28282 km
RCS: 6.1128 m2 (large)
Launch date: December 7, 1979
Source: United States (US)
Launch site: AIR FORCE EASTERN TEST RANGE (AFETR)
aabbcc
Your satellite tracking list
Your tracking list is empty




NASA's NSSDC Master Catalog

Two Line Element Set (TLE):
1 11635U 79101A   20215.17695698 -.00000164 +00000-0 +00000-0 0  9997
2 11635 009.0998 302.0505 4815860 052.7621 306.7849 01.82527476184803
Source of the keplerian elements: AFSPC